Precipitable_Water
0.29 0.30 0.32 0.30 0.30 0.31 0.29 0.30 0.27 0.28 0.29 0.33 0.35 0.35 0.36 0.36 0.34 0.31 0.29 0.26 0.25 0.24 0.24 0.25 0.24 0.24 0.24 0.24 0.24 0.24 0.26 0.28 0.27 0.32 0.45 0.52 0.60 0.70 0.75 0.78 0.80 0.85 0.88 0.90
0.23 0.27 0.27 0.26 0.29 0.27 0.26 0.24 0.23 0.24 0.22 0.32 0.34 0.35 0.32 0.31 0.28 0.24 0.21 0.21 0.23 0.23 0.23 0.23 0.23 0.22 0.22 0.22 0.23 0.25 0.26 0.25 0.26 0.32 0.41 0.49 0.55 0.67 0.72 0.75 0.78 0.81 0.82 0.84
0.20 0.25 0.24 0.20 0.24 0.26 0.26 0.26 0.25 0.20 0.25 0.31 0.31 0.31 0.30 0.24 0.21 0.20 0.22 0.23 0.22 0.22 0.22 0.22 0.22 0.22 0.21 0.22 0.24 0.24 0.25 0.25 0.26 0.32 0.40 0.46 0.53 0.64 0.68 0.71 0.75 0.77 0.80 0.80
0.21 0.23 0.16 0.25 0.32 0.29 0.25 0.27 0.30 0.30 0.30 0.31 0.30 0.29 0.25 0.22 0.22 0.23 0.23 0.21 0.21 0.21 0.21 0.22 0.22 0.23 0.24 0.25 0.24 0.25 0.24 0.24 0.28 0.31 0.37 0.45 0.52 0.61 0.66 0.70 0.72 0.74 0.77 0.79
0.20 0.20 0.22 0.24 0.26 0.24 0.24 0.25 0.30 0.28 0.28 0.28 0.28 0.25 0.18 0.22 0.24 0.22 0.21 0.22 0.22 0.22 0.23 0.23 0.24 0.25 0.26 0.27 0.27 0.27 0.26 0.25 0.28 0.30 0.35 0.44 0.51 0.60 0.66 0.67 0.70 0.72 0.75 0.76
0.24 0.19 0.16 0.23 0.28 0.30 0.29 0.19 0.27 0.27 0.27 0.27 0.25 0.14 0.18 0.23 0.22 0.21 0.22 0.22 0.22 0.23 0.25 0.25 0.27 0.28 0.27 0.27 0.28 0.28 0.29 0.27 0.28 0.29 0.35 0.44 0.53 0.61 0.65 0.67 0.68 0.71 0.72 0.74
0.23 0.21 0.22 0.27 0.29 0.31 0.19 0.20 0.28 0.28 0.27 0.22 0.19 0.21 0.23 0.23 0.22 0.22 0.22 0.23 0.24 0.25 0.25 0.27 0.28 0.28 0.27 0.27 0.27 0.30 0.31 0.29 0.28 0.29 0.35 0.47 0.56 0.62 0.64 0.65 0.66 0.67 0.68 0.69
0.24 0.20 0.17 0.29 0.28 0.25 0.28 0.29 0.28 0.27 0.24 0.22 0.23 0.23 0.22 0.22 0.21 0.21 0.21 0.22 0.24 0.25 0.27 0.29 0.29 0.28 0.26 0.26 0.29 0.31 0.30 0.28 0.28 0.30 0.36 0.49 0.57 0.60 0.62 0.62 0.62 0.63 0.63 0.63
0.26 0.25 0.32 0.34 0.32 0.32 0.29 0.26 0.25 0.22 0.24 0.24 0.23 0.22 0.22 0.20 0.20 0.21 0.22 0.23 0.26 0.27 0.28 0.29 0.29 0.29 0.27 0.28 0.29 0.31 0.29 0.28 0.28 0.32 0.38 0.52 0.57 0.58 0.58 0.60 0.59 0.59 0.59 0.59
0.28 0.29 0.29 0.29 0.30 0.29 0.28 0.25 0.24 0.26 0.26 0.25 0.22 0.22 0.20 0.20 0.20 0.21 0.22 0.23 0.27 0.28 0.28 0.28 0.29 0.30 0.29 0.29 0.30 0.31 0.28 0.27 0.29 0.32 0.41 0.54 0.58 0.58 0.58 0.58 0.58 0.58 0.58 0.57
0.25 0.28 0.28 0.27 0.27 0.27 0.25 0.25 0.26 0.27 0.25 0.24 0.23 0.21 0.20 0.20 0.21 0.22 0.23 0.25 0.28 0.29 0.28 0.28 0.30 0.31 0.32 0.32 0.32 0.31 0.29 0.28 0.30 0.34 0.43 0.54 0.56 0.57 0.58 0.60 0.61 0.58 0.59 0.59
0.21 0.25 0.23 0.23 0.25 0.26 0.25 0.25 0.26 0.25 0.23 0.24 0.22 0.20 0.21 0.21 0.23 0.23 0.24 0.26 0.28 0.29 0.30 0.30 0.31 0.31 0.32 0.34 0.35 0.33 0.29 0.29 0.32 0.36 0.44 0.54 0.54 0.55 0.61 0.62 0.63 0.63 0.64 0.62
0.24 0.26 0.25 0.25 0.27 0.27 0.27 0.27 0.25 0.25 0.24 0.21 0.21 0.22 0.22 0.22 0.23 0.24 0.25 0.26 0.28 0.29 0.30 0.31 0.32 0.33 0.35 0.37 0.37 0.34 0.31 0.32 0.34 0.39 0.46 0.52 0.53 0.53 0.52 0.59 0.62 0.63 0.63 0.63
0.26 0.25 0.24 0.26 0.26 0.29 0.27 0.26 0.26 0.24 0.23 0.22 0.22 0.23 0.23 0.23 0.23 0.24 0.25 0.27 0.29 0.30 0.31 0.32 0.33 0.34 0.37 0.38 0.37 0.35 0.35 0.36 0.36 0.40 0.47 0.52 0.53 0.53 0.54 0.54 0.53 0.56 0.61 0.62
0.27 0.28 0.28 0.28 0.28 0.27 0.26 0.25 0.21 0.19 0.19 0.20 0.22 0.22 0.23 0.23 0.23 0.24 0.26 0.28 0.30 0.31 0.31 0.32 0.34 0.35 0.39 0.39 0.37 0.38 0.38 0.38 0.39 0.42 0.49 0.53 0.53 0.54 0.54 0.54 0.54 0.55 0.57 0.59
0.28 0.28 0.28 0.26 0.25 0.25 0.23 0.20 0.18 0.17 0.18 0.19 0.21 0.22 0.24 0.24 0.24 0.25 0.26 0.28 0.28 0.29 0.31 0.33 0.34 0.37 0.40 0.41 0.40 0.41 0.41 0.40 0.41 0.44 0.49 0.51 0.52 0.52 0.52 0.53 0.53 0.54 0.54 0.55
0.25 0.23 0.25 0.24 0.23 0.21 0.19 0.19 0.17 0.17 0.18 0.19 0.21 0.23 0.24 0.24 0.24 0.24 0.25 0.28 0.29 0.29 0.31 0.33 0.35 0.39 0.41 0.42 0.43 0.43 0.42 0.42 0.42 0.45 0.50 0.51 0.51 0.51 0.52 0.52 0.52 0.53 0.54 0.56
0.27 0.27 0.25 0.23 0.20 0.19 0.18 0.17 0.17 0.17 0.17 0.19 0.21 0.23 0.23 0.24 0.23 0.24 0.25 0.27 0.28 0.28 0.30 0.33 0.36 0.39 0.41 0.42 0.43 0.45 0.44 0.43 0.43 0.45 0.50 0.50 0.50 0.51 0.51 0.51 0.52 0.52 0.52 0.54
0.26 0.24 0.23 0.22 0.20 0.19 0.17 0.16 0.17 0.18 0.18 0.19 0.21 0.22 0.24 0.24 0.25 0.25 0.26 0.26 0.26 0.26 0.29 0.33 0.36 0.38 0.40 0.42 0.43 0.44 0.44 0.44 0.43 0.48 0.49 0.50 0.49 0.50 0.50 0.51 0.51 0.51 0.52 0.51
0.23 0.23 0.22 0.21 0.20 0.18 0.16 0.17 0.18 0.17 0.18 0.19 0.20 0.22 0.23 0.24 0.25 0.25 0.25 0.25 0.26 0.28 0.31 0.32 0.35 0.37 0.39 0.41 0.43 0.44 0.43 0.44 0.44 0.48 0.48 0.48 0.48 0.48 0.49 0.50 0.50 0.50 0.50 0.50
0.22 0.21 0.20 0.19 0.17 0.17 0.17 0.18 0.18 0.17 0.18 0.19 0.18 0.20 0.23 0.24 0.25 0.25 0.24 0.23 0.26 0.30 0.31 0.32 0.34 0.36 0.39 0.40 0.41 0.42 0.43 0.43 0.46 0.47 0.47 0.47 0.47 0.48 0.48 0.49 0.49 0.49 0.49 0.49
0.20 0.18 0.17 0.17 0.17 0.18 0.18 0.18 0.19 0.19 0.18 0.18 0.18 0.20 0.22 0.23 0.25 0.25 0.25 0.25 0.27 0.30 0.30 0.31 0.33 0.36 0.38 0.39 0.40 0.40 0.41 0.43 0.46 0.47 0.47 0.47 0.47 0.46 0.47 0.47 0.47 0.48 0.48 0.48
0.17 0.18 0.18 0.18 0.18 0.18 0.19 0.19 0.19 0.19 0.19 0.19 0.18 0.19 0.21 0.23 0.25 0.23 0.22 0.26 0.27 0.29 0.29 0.30 0.32 0.34 0.36 0.37 0.38 0.38 0.39 0.42 0.45 0.46 0.46 0.47 0.47 0.47 0.47 0.47 0.47 0.48 0.47 0.47
0.18 0.19 0.19 0.20 0.20 0.19 0.18 0.19 0.20 0.20 0.20 0.19 0.19 0.19 0.20 0.21 0.22 0.25 0.27 0.27 0.28 0.28 0.29 0.30 0.31 0.32 0.34 0.35 0.36 0.37 0.38 0.40 0.43 0.46 0.46 0.47 0.47 0.47 0.47 0.47 0.47 0.47 0.48 0.47
0.19 0.19 0.20 0.20 0.20 0.20 0.20 0.20 0.20 0.20 0.20 0.19 0.19 0.20 0.21 0.22 0.22 0.23 0.25 0.27 0.27 0.28 0.28 0.29 0.30 0.31 0.32 0.33 0.34 0.34 0.36 0.38 0.40 0.42 0.44 0.45 0.46 0.46 0.46 0.47 0.47 0.47 0.47 0.47
0.19 0.20 0.20 0.21 0.21 0.21 0.21 0.21 0.20 0.20 0.19 0.19 0.19 0.20 0.21 0.21 0.21 0.21 0.23 0.26 0.27 0.27 0.27 0.28 0.28 0.29 0.30 0.31 0.32 0.33 0.34 0.36 0.38 0.39 0.41 0.42 0.43 0.44 0.45 0.45 0.46 0.46 0.46 0.46
0.20 0.21 0.21 0.20 0.21 0.22 0.21 0.21 0.20 0.20 0.20 0.20 0.19 0.20 0.21 0.21 0.20 0.19 0.21 0.23 0.24 0.26 0.26 0.27 0.27 0.28 0.29 0.30 0.30 0.31 0.32 0.34 0.36 0.37 0.38 0.39 0.40 0.41 0.42 0.43 0.43 0.44 0.44 0.45
Wind_Speed
30 32 32 33 33 31 29 28 24 26 25 22 22 22 24 25 26 28 28 27 28 30 32 34 35 36 36 36 36 36 34 32 30 28 26 24 23 22 21 21 21 21 20 20
32 29 29 33 32 30 27 25 26 27 24 21 21 22 23 25 28 26 29 30 32 34 36 37 37 38 39 39 39 37 33 31 29 26 25 23 23 22 21 20 20 21 21 20
30 32 36 28 22 25 25 23 23 21 20 21 21 22 24 28 27 29 31 33 34 36 37 38 39 40 41 41 38 35 32 30 28 25 23 22 21 21 20 19 19 20 19 20
30 32 27 25 25 25 23 21 22 21 22 23 22 22 25 28 29 32 34 35 36 37 38 40 41 40 41 38 36 33 31 28 26 24 22 21 20 20 19 17 17 17 18 20
27 28 33 25 24 21 22 23 23 22 22 23 25 28 27 28 31 34 35 36 37 38 39 40 40 39 37 34 32 30 28 26 23 22 21 20 19 19 17 15 16 16 17 18
27 27 26 24 22 25 23 23 20 23 25 27 29 28 28 31 34 35 36 37 38 38 39 38 37 36 34 32 30 28 26 24 22 20 19 18 18 17 14 13 14 13 13 14
28 27 28 25 25 23 21 23 25 27 27 28 28 29 33 34 34 35 36 37 37 38 37 37 36 34 32 31 29 28 25 21 20 18 18 16 16 14 12 11 11 10 11 11
24 25 26 25 24 23 25 27 28 28 29 29 30 31 32 33 34 36 36 37 37 37 36 36 34 33 31 29 28 26 22 18 17 16 16 14 14 13 12 11 10 10 10 11
25 26 27 28 27 26 26 28 27 28 29 29 30 31 32 34 34 35 37 37 37 36 35 34 33 32 30 29 27 23 18 16 15 15 14 13 12 11 12 11 10 9 9 10
28 27 27 26 26 26 26 25 28 28 28 28 29 31 32 33 35 36 36 36 36 34 33 32 32 31 29 27 24 20 16 15 14 13 12 11 10 11 13 12 10 9 10 10
29 28 26 26 26 25 26 27 27 27 27 28 29 30 32 34 35 36 36 35 34 32 32 32 32 30 27 24 21 18 15 13 13 12 12 10 8 12 13 13 12 11 10 10
27 25 26 26 26 27 26 26 25 26 27 28 28 30 32 34 35 36 36 34 32 31 31 32 31 29 26 21 17 15 13 12 12 12 12 9 8 12 14 13 14 13 12 12
26 26 26 27 24 25 25 24 24 25 26 28 29 30 32 34 35 37 35 32 30 30 31 31 29 26 23 17 15 13 12 12 12 12 12 10 10 12 14 14 15 15 15 16
25 25 23 23 23 24 23 24 24 25 26 28 29 31 32 33 35 35 33 30 29 29 29 28 27 24 20 16 13 11 11 11 12 13 13 11 11 13 17 17 16 17 17 18
23 23 22 21 21 22 22 24 24 25 27 28 29 31 32 34 34 34 31 29 28 26 26 26 25 22 17 13 11 10 10 10 11 13 14 12 12 14 18 19 18 18 19 19
23 21 20 19 20 21 22 24 25 26 27 28 30 31 32 32 33 32 29 27 25 24 24 24 22 20 15 11 9 9 9 10 11 13 14 12 13 16 18 21 21 20 20 20
20 19 19 18 19 21 23 24 25 27 28 29 30 31 31 31 31 29 28 26 24 23 22 21 20 17 14 11 10 9 9 10 11 13 14 12 14 16 19 22 22 21 20 21
17 17 17 18 20 22 24 25 26 27 28 29 30 31 30 29 29 28 27 25 23 22 20 20 18 16 14 12 11 9 9 9 10 13 13 12 14 16 20 23 23 23 21 22
16 17 18 20 22 23 25 26 27 28 29 29 29 29 28 27 27 27 25 24 22 21 21 20 18 16 14 13 11 10 8 8 10 13 12 13 14 16 19 23 24 24 23 22
17 19 20 22 24 25 26 27 28 28 28 28 28 27 26 25 25 24 23 22 21 21 21 19 17 15 14 12 11 9 8 7 9 12 12 13 13 16 18 23 25 25 24 22
20 21 23 24 26 27 27 27 28 27 27 26 25 25 24 24 22 21 21 21 23 22 19 18 16 14 12 11 9 8 7 6 9 12 11 12 13 16 19 22 24 25 24 22
22 24 25 26 27 27 27 27 27 26 25 24 23 22 22 21 20 19 19 20 22 22 19 17 15 13 10 9 7 7 5 5 9 11 11 12 14 16 19 21 23 24 23 22
24 25 26 26 27 27 27 26 25 24 23 22 21 20 19 18 17 18 18 21 21 21 18 16 15 11 9 6 6 5 4 4 8 11 11 13 15 16 18 21 22 22 22 20
24 25 26 26 26 25 24 24 23 21 20 19 18 17 17 16 16 16 17 19 20 20 16 15 15 10 7 5 4 3 2 3 7 10 11 14 16 17 19 19 20 20 19 19
24 25 25 24 24 23 23 22 20 19 18 16 15 14 14 13 14 16 17 17 18 17 15 15 15 11 7 5 4 2 1 3 7 10 11 14 17 18 18 18 18 18 17 17
23 23 23 22 21 21 20 19 17 16 15 13 12 12 12 12 13 14 14 14 15 15 15 15 13 11 9 7 4 3 2 4 8 11 12 15 18 18 17 16 16 15 16 15
22 21 20 20 19 18 18 16 14 13 12 10 10 10 10 11 12 13 13 13 13 13 13 13 13 11 11 10 9 7 6 6 9 12 13 16 18 17 15 15 14 14 14 13
Wind_Direction
312 315 313 309 309 307 301 298 296 302 299 299 296 298 299 299 303 306 307 308 308 306 306 307 308 308 308 306 305 304 301 299 296 291 288 288 293 297 282 268 257 250 246 244
317 315 318 313 310 306 307 303 298 299 299 300 301 302 302 304 307 307 309 309 308 307 308 308 308 307 307 306 304 302 297 295 294 288 285 286 288 293 286 267 255 251 246 242
315 320 317 315 315 317 315 314 310 306 308 308 307 307 306 307 308 309 309 309 309 308 308 308 308 308 307 305 303 300 295 292 290 284 281 284 284 291 287 267 256 248 243 239
313 320 318 319 318 317 315 320 317 313 312 310 308 307 307 309 309 310 311 310 309 309 309 309 309 308 308 306 303 299 295 289 285 280 279 281 282 289 287 265 248 245 242 239
313 313 311 316 319 320 319 314 315 312 313 311 310 307 308 311 312 311 311 311 310 311 310 311 311 311 309 307 304 301 293 286 280 277 277 276 279 287 283 260 244 245 244 240
311 309 311 317 316 317 314 309 316 315 314 311 312 310 309 313 313 312 312 312 312 313 313 312 312 312 310 309 305 301 296 284 276 273 273 271 279 284 273 250 242 242 238 233
301 305 309 312 313 314 313 311 313 313 312 312 310 307 310 312 313 313 314 314 315 314 314 313 313 312 310 309 305 302 296 280 271 269 269 266 276 279 256 236 231 231 227 224
306 305 306 313 312 310 309 309 311 310 310 310 310 311 312 314 315 316 316 317 316 316 315 315 314 312 310 309 307 302 294 275 266 265 265 261 273 272 232 223 226 224 219 214
299 303 306 309 307 309 309 309 311 311 311 312 312 313 315 315 316 317 318 318 317 316 316 316 316 313 309 308 307 301 290 270 263 262 259 257 267 253 216 215 214 213 206 200
304 305 304 306 307 308 309 309 310 311 311 312 313 315 316 317 318 319 320 319 319 318 317 317 318 315 309 306 303 297 282 265 259 257 251 252 265 225 205 204 203 199 194 194
300 302 304 306 306 306 308 309 310 310 311 313 314 316 318 319 320 321 321 320 320 319 318 318 319 316 312 306 300 292 275 258 252 250 239 248 254 207 203 204 200 191 186 181
300 302 302 303 305 307 308 309 310 311 313 315 316 317 319 320 322 322 322 321 320 320 320 320 319 317 313 305 297 288 268 251 246 244 232 239 232 205 203 200 194 188 181 173
301 302 302 302 303 308 308 310 311 313 314 315 317 319 320 322 323 324 323 321 321 321 321 322 321 319 316 305 295 283 260 249 242 237 228 230 218 204 197 193 186 181 173 167
304 304 302 306 304 307 309 311 313 313 315 317 318 320 321 322 324 325 324 322 321 322 323 325 324 322 316 306 294 277 258 251 241 231 224 225 216 205 197 190 184 179 176 171
306 306 304 305 307 308 310 312 314 316 318 319 321 321 322 324 326 326 325 323 323 323 325 328 328 325 319 307 291 273 264 249 240 226 220 222 215 205 197 192 188 183 179 177
305 304 306 307 308 310 312 315 316 317 319 320 322 322 323 324 326 327 326 326 326 325 327 330 331 332 326 313 295 278 267 252 241 224 217 220 214 205 198 194 190 186 185 184
305 304 306 308 310 313 315 316 316 318 319 320 322 323 324 325 326 328 328 327 326 326 326 328 329 332 329 321 306 287 272 251 239 221 214 220 213 205 199 194 191 189 187 186
305 305 307 308 310 314 316 317 318 319 319 320 322 323 324 325 327 328 328 327 326 327 327 326 325 325 325 320 312 298 276 249 235 217 215 216 210 204 198 194 191 188 186 185
307 308 309 311 313 314 316 317 318 319 319 320 322 324 324 325 327 329 329 329 327 326 327 325 323 319 317 315 312 303 285 251 230 212 213 211 205 200 196 192 190 188 186 186
306 308 309 311 313 314 314 316 317 318 319 320 322 325 326 327 328 330 333 333 332 327 324 324 320 316 312 312 310 301 287 250 223 208 209 205 200 195 191 188 187 186 186 188
306 307 308 310 311 312 313 314 315 317 318 320 321 325 327 328 329 331 334 337 339 336 332 327 322 318 311 309 308 304 287 243 214 204 203 198 194 190 187 184 184 185 186 189
305 306 307 308 309 310 312 313 314 315 316 319 321 324 327 330 332 334 338 340 340 340 337 332 328 324 314 310 306 305 290 233 205 197 195 191 187 183 182 182 182 184 187 189
306 306 307 308 309 309 311 312 314 315 316 318 321 324 327 330 332 335 336 341 343 343 340 341 337 331 325 313 313 311 294 221 199 192 190 185 181 177 175 177 179 183 186 189
308 308 308 309 310 311 312 313 313 314 315 317 320 324 328 331 335 340 341 342 346 349 349 350 352 347 339 327 324 321 302 199 188 185 182 178 175 173 173 175 178 181 185 188
309 310 311 311 312 312 312 313 313 314 314 317 320 325 330 334 336 339 344 348 352 358 1 0 3 7 3 354 349 348 348 176 173 172 168 170 169 169 170 172 175 178 183 185
311 312 312 313 314 314 315 315 314 315 316 317 321 328 334 339 342 346 349 353 359 4 9 11 15 24 27 25 27 40 84 139 164 163 160 163 165 165 167 168 172 177 180 184
313 314 315 316 317 317 318 318 317 316 318 318 322 331 338 344 349 354 358 1 4 9 13 19 27 33 38 43 52 65 86 114 139 155 155 160 163 165 165 167 170 172 176 181